When you browse on this site, cookies collect data to enhance your experience and personalize the content and advertising you see.
Visit our Privacy Policy to learn more. By continuing to use the site, you agree to this use of cookies and data.
  • In Hungary
  • List of Countries
  • For 7 days
  • Water Temperature
  • Satellite Maps
  • Weather Map
  • News
  • Weather Widgets
  • user-avatar
    Login

    Hourly Weather Sveti Vlas

    Today, 23 January, Wednesday

    Time Temperature Precipitation Wind Pressure Humidity
    00:00 +5°C° 0 mm 5 mps 751 mmHg 92%
    01:00 +5°C° 0 mm 5 mps 751 mmHg 93%
    02:00 +5°C° 0 mm 5 mps 750 mmHg 94%
    03:00 +5°C° 0.7 mm 5 mps 749 mmHg 94%
    04:00 +6°C° 0.7 mm 5 mps 749 mmHg 94%
    05:00 +6°C° 0.7 mm 5 mps 748 mmHg 94%
    06:00 +6°C° 0.1 mm 5 mps 748 mmHg 92%
    07:00 +7°C° 0.1 mm 6 mps 747 mmHg 90%
    08:00 +7°C° 0.1 mm 6 mps 747 mmHg 88%
    09:00 +8°C° 0 mm 6 mps 747 mmHg 84%
    10:00 +10°C° 0 mm 6 mps 747 mmHg 80%
    11:00 +11°C° 0 mm 7 mps 747 mmHg 77%
    12:00 +11°C° 0 mm 7 mps 747 mmHg 75%
    13:00 +12°C° 0 mm 7 mps 746 mmHg 73%
    14:00 +12°C° 0 mm 7 mps 746 mmHg 71%
    15:00 +13°C° 0.1 mm 6 mps 746 mmHg 74%
    16:00 +11°C° 0.1 mm 6 mps 746 mmHg 78%
    17:00 +10°C° 0.1 mm 6 mps 746 mmHg 81%
    18:00 +10°C° 0 mm 6 mps 746 mmHg 82%
    19:00 +9°C° 0 mm 6 mps 746 mmHg 84%
    20:00 +9°C° 0 mm 5 mps 745 mmHg 85%
    21:00 +9°C° 0.1 mm 6 mps 745 mmHg 87%
    22:00 +9°C° 0.1 mm 6 mps 745 mmHg 88%
    23:00 +8°C° 0.1 mm 6 mps 745 mmHg 89%

    Tomorrow, 24 January, Thursday

    Time Temperature Precipitation Wind Pressure Humidity
    00:00 +8°C° 0.2 mm 6 mps 745 mmHg 89%
    01:00 +8°C° 0.2 mm 6 mps 745 mmHg 90%
    02:00 +8°C° 0.2 mm 6 mps 744 mmHg 91%
    03:00 +8°C° 0.1 mm 6 mps 744 mmHg 90%
    04:00 +8°C° 0.1 mm 6 mps 743 mmHg 90%
    05:00 +8°C° 0.1 mm 6 mps 743 mmHg 89%
    06:00 +8°C° 0.3 mm 6 mps 743 mmHg 88%
    07:00 +8°C° 0.3 mm 6 mps 742 mmHg 87%
    08:00 +8°C° 0.3 mm 6 mps 742 mmHg 86%
    09:00 +8°C° 3.1 mm 6 mps 742 mmHg 89%
    10:00 +7°C° 3.1 mm 5 mps 742 mmHg 92%
    11:00 +7°C° 3.1 mm 4 mps 742 mmHg 94%
    12:00 +8°C° 0.4 mm 5 mps 741 mmHg 91%
    13:00 +8°C° 0.4 mm 5 mps 741 mmHg 88%
    14:00 +9°C° 0.4 mm 6 mps 740 mmHg 85%
    15:00 +8°C° 0 mm 5 mps 740 mmHg 86%
    16:00 +8°C° 0 mm 5 mps 740 mmHg 86%
    17:00 +8°C° 0 mm 4 mps 740 mmHg 86%
    18:00 +8°C° 0 mm 4 mps 741 mmHg 89%
    19:00 +7°C° 0 mm 4 mps 741 mmHg 91%
    20:00 +7°C° 0 mm 4 mps 741 mmHg 93%
    21:00 +7°C° 0 mm 4 mps 742 mmHg 92%
    22:00 +7°C° 0 mm 4 mps 742 mmHg 92%
    23:00 +8°C° 0 mm 3 mps 743 mmHg 92%

    Day after tomorrow, 25 January, Friday

    Time Temperature Precipitation Wind Pressure Humidity
    00:00 +7°C° 0 mm 3 mps 743 mmHg 92%
    01:00 +7°C° 0 mm 3 mps 743 mmHg 91%
    02:00 +7°C° 0 mm 3 mps 743 mmHg 91%
    03:00 +7°C° 0 mm 3 mps 743 mmHg 91%
    04:00 +7°C° 0 mm 3 mps 743 mmHg 91%
    05:00 +7°C° 0 mm 3 mps 743 mmHg 91%
    06:00 +6°C° 0 mm 4 mps 743 mmHg 91%
    07:00 +6°C° 0 mm 4 mps 743 mmHg 91%
    08:00 +7°C° 0 mm 5 mps 743 mmHg 91%
    09:00 +7°C° 1.5 mm 5 mps 743 mmHg 91%
    10:00 +7°C° 1.5 mm 6 mps 743 mmHg 91%
    11:00 +7°C° 1.5 mm 6 mps 743 mmHg 92%
    12:00 +8°C° 0.7 mm 6 mps 743 mmHg 90%
    13:00 +8°C° 0.7 mm 5 mps 743 mmHg 88%
    14:00 +8°C° 0.7 mm 5 mps 742 mmHg 86%
    15:00 +8°C° 0 mm 5 mps 742 mmHg 86%
    16:00 +8°C° 0 mm 5 mps 742 mmHg 86%
    17:00 +8°C° 0 mm 6 mps 742 mmHg 86%
    18:00 +8°C° 0.2 mm 5 mps 742 mmHg 87%
    19:00 +8°C° 0.2 mm 5 mps 742 mmHg 89%
    20:00 +8°C° 0.2 mm 5 mps 741 mmHg 91%
    21:00 +8°C° 0.4 mm 6 mps 741 mmHg 89%
    22:00 +8°C° 0.4 mm 7 mps 741 mmHg 87%
    23:00 +9°C° 0.4 mm 8 mps 741 mmHg 86%

    26 January, Saturday

    Time Temperature Precipitation Wind Pressure Humidity
    00:00 +9°C° 0.2 mm 8 mps 741 mmHg 86%
    01:00 +9°C° 0.2 mm 7 mps 741 mmHg 87%
    02:00 +8°C° 0.2 mm 7 mps 741 mmHg 87%
    03:00 +8°C° 0 mm 6 mps 741 mmHg 89%
    04:00 +8°C° 0 mm 5 mps 740 mmHg 90%
    05:00 +7°C° 0 mm 4 mps 740 mmHg 92%
    06:00 +8°C° 0 mm 3 mps 740 mmHg 92%
    07:00 +8°C° 0 mm 2 mps 741 mmHg 91%
    08:00 +8°C° 0 mm 1 mps 741 mmHg 91%
    09:00 +9°C° 0 mm 1 mps 741 mmHg 88%
    10:00 +9°C° 0 mm 2 mps 741 mmHg 85%
    11:00 +12°C° 0 mm 2 mps 742 mmHg 82%
    12:00 +10°C° 0 mm 3 mps 741 mmHg 83%
    13:00 +10°C° 0 mm 3 mps 741 mmHg 83%
    14:00 +10°C° 0 mm 4 mps 741 mmHg 84%
    15:00 +10°C° 0.1 mm 4 mps 741 mmHg 85%
    16:00 +8°C° 0.1 mm 4 mps 741 mmHg 86%
    17:00 +9°C° 0.1 mm 3 mps 741 mmHg 87%
    18:00 +9°C° 0.3 mm 3 mps 742 mmHg 89%
    19:00 +8°C° 0.3 mm 3 mps 742 mmHg 91%
    20:00 +8°C° 0.3 mm 2 mps 742 mmHg 93%
    21:00 +8°C° 0.1 mm 3 mps 743 mmHg 94%
    22:00 +8°C° 0.1 mm 3 mps 743 mmHg 95%
    23:00 +7°C° 0.1 mm 3 mps 743 mmHg 96%

    27 January, Sunday

    Time Temperature Precipitation Wind Pressure Humidity
    00:00 +6°C° 0.4 mm 4 mps 743 mmHg 96%
    01:00 +6°C° 0.4 mm 4 mps 743 mmHg 96%
    02:00 +6°C° 0.4 mm 4 mps 743 mmHg 97%
    03:00 +6°C° 0.4 mm 4 mps 743 mmHg 96%
    04:00 +6°C° 0.4 mm 4 mps 743 mmHg 95%
    05:00 +6°C° 0.4 mm 4 mps 743 mmHg 94%
    06:00 +6°C° 0 mm 4 mps 743 mmHg 93%
    07:00 +6°C° 0 mm 4 mps 743 mmHg 91%
    08:00 +7°C° 0 mm 3 mps 744 mmHg 90%
    09:00 +6°C° 0 mm 4 mps 744 mmHg 86%
    10:00 +7°C° 0 mm 4 mps 744 mmHg 81%
    11:00 +7°C° 0 mm 4 mps 744 mmHg 77%
    12:00 +7°C° 0 mm 4 mps 744 mmHg 76%
    13:00 +9°C° 0 mm 3 mps 744 mmHg 75%
    14:00 +9°C° 0 mm 3 mps 744 mmHg 73%
    15:00 +8°C° 0 mm 3 mps 744 mmHg 76%
    16:00 +8°C° 0 mm 2 mps 744 mmHg 78%
    17:00 +7°C° 0 mm 2 mps 744 mmHg 80%
    18:00 +7°C° 0 mm 2 mps 745 mmHg 81%
    19:00 +6°C° 0 mm 2 mps 745 mmHg 83%
    20:00 +6°C° 0 mm 2 mps 745 mmHg 84%
    21:00 +6°C° 0 mm 2 mps 746 mmHg 85%
    22:00 +5°C° 0 mm 2 mps 746 mmHg 86%
    23:00 +5°C° 0 mm 2 mps 747 mmHg 86%

    28 January, Monday

    Time Temperature Precipitation Wind Pressure Humidity
    00:00 +6°C° 0 mm 1 mps 747 mmHg 87%
    01:00 +5°C° 0 mm 1 mps 747 mmHg 87%
    02:00 +5°C° 0 mm 1 mps 748 mmHg 87%
    03:00 +5°C° 0 mm 1 mps 748 mmHg 88%
    04:00 +5°C° 0 mm 1 mps 748 mmHg 88%
    05:00 +4°C° 0 mm 1 mps 748 mmHg 89%
    06:00 +4°C° 0 mm 1 mps 749 mmHg 89%
    07:00 +4°C° 0 mm 1 mps 749 mmHg 89%
    08:00 +3°C° 0 mm 0 mps 749 mmHg 90%
    09:00 +6°C° 0 mm 1 mps 750 mmHg 85%
    10:00 +7°C° 0 mm 1 mps 750 mmHg 81%
    11:00 +8°C° 0 mm 1 mps 751 mmHg 76%
    12:00 +8°C° 0 mm 2 mps 751 mmHg 72%
    13:00 +9°C° 0 mm 2 mps 751 mmHg 67%
    14:00 +10°C° 0 mm 2 mps 751 mmHg 62%
    15:00 +10°C° 0 mm 2 mps 752 mmHg 67%
    16:00 +9°C° 0 mm 3 mps 752 mmHg 72%
    17:00 +9°C° 0 mm 3 mps 752 mmHg 76%
    18:00 +8°C° 0 mm 3 mps 752 mmHg 79%
    19:00 +8°C° 0 mm 3 mps 753 mmHg 82%
    20:00 +8°C° 0 mm 3 mps 753 mmHg 85%
    21:00 +8°C° 0 mm 3 mps 753 mmHg 86%
    22:00 +7°C° 0 mm 3 mps 753 mmHg 87%
    23:00 +7°C° 0 mm 3 mps 754 mmHg 87%
    Show more